Flag for Canada Weather past 2 weeks in Selkirk, Manitoba, Canada

Now
32 °F

Chilly.


Feels Like: 24 °F
Forecast: 28 / 39 °F
Wind: 9 mph from North

Location: Winnipeg The Forks

Current Time: Apr 21, 2015 at 3:44:19 AM

Latest Report: Apr 21, 2015 at 3:00 AM


Visibility: N/A

Pressure: 29.67 "Hg

Humidity: 86%

Dew point: 28 °F

Location of SelkirkLocation

Historic Weather in Selkirk — Graph

°F

Selkirk temperature yesterday

Maximum temperature yesterday: 35 °F (at 4:00 PM)
Minimum temperature yesterday: 30 °F (at 6:00 AM)
Average temperature yesterday: 32 °F

Past Weeks' High & Low Weather Summary

 TemperatureHumidityPressure
High76 °F (Apr 15, 6:00 PM)96% (Apr 8, 7:00 AM)30.35 "Hg (Apr 8, 7:00 AM)
Low22 °F (Apr 6, 7:00 AM)14% (Apr 13, 1:00 PM)29.39 "Hg (Apr 12, 5:00 AM)
Average46 °F49%29.93 "Hg
* Reported Apr 6 2:00 AM — Apr 21 2:00 AM, Selkirk, Weather by CustomWeather, © 2015

Note: Actual official high and low records may vary slightly from our data, if they occured in-between our weather recording intervals... More about our weather records

Advertising

Selkirk weather history for previous 24 hours

 ConditionsComfort  
Time TempWeatherWind HumidityBarometerVisibility
2:00 AM
Tue, Apr 21
32 °FChilly.12 mph91%29.66 "HgN/A
1:00 AM33 °FChilly.12 mph86%29.65 "HgN/A
12:00 AM33 °FChilly.12 mph85%29.65 "HgN/A
11:00 PM
Mon, Apr 20
31 °FChilly.9 mph92%29.65 "HgN/A
10:00 PM31 °FChilly.8 mph85%29.65 "HgN/A
9:00 PM33 °FChilly.10 mph73%29.65 "HgN/A
8:00 PM34 °FChilly.10 mph69%29.65 "HgN/A
7:00 PM34 °FChilly.12 mph70%29.65 "HgN/A
6:00 PM34 °FChilly.12 mph80%29.64 "HgN/A
5:00 PM34 °FChilly.13 mph73%29.62 "HgN/A
4:00 PM35 °FChilly.13 mph74%29.61 "HgN/A
3:00 PM35 °FChilly.10 mph74%29.60 "HgN/A
2:00 PM33 °FChilly.12 mph77%29.60 "HgN/A
1:00 PM34 °FChilly.12 mph75%29.59 "HgN/A
12:00 PM32 °FChilly.13 mph82%29.60 "HgN/A
11:00 AM31 °FChilly.10 mph82%29.60 "HgN/A
10:00 AM30 °FChilly.9 mph81%29.60 "HgN/A
9:00 AM30 °FChilly.9 mph80%29.61 "HgN/A
8:00 AM30 °FChilly.8 mph80%29.62 "HgN/A
7:00 AM30 °FChilly.5 mph81%29.63 "HgN/A
6:00 AM30 °FChilly.9 mph76%29.64 "HgN/A
5:00 AM31 °FChilly.9 mph75%29.65 "HgN/A
4:00 AM31 °FChilly.7 mph77%29.66 "HgN/A
3:00 AM30 °FChilly.9 mph77%29.68 "HgN/A
Weather by CustomWeather, © 2015

See weather overviewHow to use our weather pages